This demonstration page uses our WeatherBlox Daily Observations layout. Learn more.

40.92945, -100.16068

Hourly Observations for March 4, 2018

Temp ( °F °C ) Dew Point ( °F °C ) Humidity (%) Winds ( mph kmh ) Pressure ( in mb ) Visibility ( mi km ) Precip ( " mm )
12:15 am 00:15 Clear 54 12.2 47 8.3 77 77 SE 15 24 29.77 1008 10 16.0934 0 0
12:35 am 00:35 Clear 54 12 47 8.2 78 78 SSE 16 26 29.77 1008 10 16.0934 0 0
12:55 am 00:55 Clear 53 11.7 47 8.1 79 79 SSE 18 30 29.77 1008 10 16.0934 0 0
1:15 am 01:15 Clear 53 11.8 46 8 78 78 SSE 20 31 29.77 1008 10 16.0934 0 0
1:35 am 01:35 Clear 53 11.7 46 7.9 78 78 SSE 16 26 29.77 1008 10 16.0934 0 0
1:55 am 01:55 Clear 53 11.5 46 7.7 78 78 SSE 16 26 29.77 1008 10 16.0934 0 0
2:15 am 02:15 Clear 52 11.1 46 7.6 79 79 SSE 17 28 29.77 1008 10 16.0934 0 0
2:35 am 02:35 Clear 52 11 46 7.5 79 79 SE 14 22 29.8 1009 10 16.0934 0 0
2:55 am 02:55 Clear 51 10.6 46 7.5 81 81 SE 15 24 29.77 1008 10 16.0934 0 0
3:15 am 03:15 Clear 51 10.4 45 7.2 81 81 SSE 16 26 29.77 1008 10 16.0934 0 0
3:35 am 03:35 Clear 50 9.9 45 7 82 82 SSE 15 24 29.77 1008 10 16.0934 0 0
3:55 am 03:55 Clear 50 9.8 44 6.9 82 82 SE 15 24 29.77 1008 10 16.0934 0 0
4:15 am 04:15 Clear 49 9.4 44 6.5 82 82 SE 10 17 29.77 1008 10 16.0934 0 0
4:35 am 04:35 Clear 49 9.2 44 6.6 84 84 SE 14 22 29.77 1008 10 16.0934 0 0
4:55 am 04:55 Mostly Cloudy 49 9.3 44 6.7 84 84 SE 10 17 29.77 1008 10 16.0934 0 0
5:15 am 05:15 Cloudy 49 9.4 45 7 85 85 SE 13 20 29.74 1007 10 16.0934 0 0
5:35 am 05:35 Cloudy 50 10 45 7.4 84 84 SE 14 22 29.74 1007 10 16.0934 0 0
5:55 am 05:55 Cloudy 51 10.3 46 7.7 84 84 SSE 16 26 29.74 1007 10 16.0934 0 0
6:15 am 06:15 Cloudy 51 10.5 46 7.8 84 84 SE 10 17 29.71 1006 10 16.0934 0 0
6:35 am 06:35 Cloudy 51 10.6 46 8 84 84 SSE 13 20 29.71 1006 10 16.0934 0 0
6:55 am 06:55 Cloudy 51 10.6 47 8.2 85 85 SSE 16 26 29.71 1006 10 16.0934 0 0
7:15 am 07:15 Cloudy 51 10.7 47 8.3 85 85 SSE 10 17 29.71 1006 10 16.0934 0 0
7:35 am 07:35 Cloudy 51 10.7 47 8.3 85 85 SSE 8 13 29.71 1006 10 16.0934 0 0
7:55 am 07:55 Cloudy 51 10.7 47 8.3 85 85 SSE 9 15 29.71 1006 10 16.0934 0 0
8:15 am 08:15 Cloudy 51 10.7 47 8.3 85 85 SE 6 9 29.71 1006 10 16.0934 0 0
8:35 am 08:35 Cloudy 51 10.8 47 8.3 85 85 SSE 9 15 29.71 1006 10 16.0934 0 0
8:55 am 08:55 Cloudy 52 11.2 47 8.5 84 84 SSE 10 17 29.68 1005 10 16.0934 0 0
9:15 am 09:15 Cloudy 53 11.4 47 8.6 83 83 SSE 10 17 29.71 1006 10 16.0934 0 0
9:35 am 09:35 Cloudy 53 11.8 47 8.6 81 81 SSE 15 24 29.68 1005 10 16.0934 0 0
9:55 am 09:55 Cloudy 55 12.6 48 9 79 79 S 20 31 29.68 1005 10 16.0934 0 0
10:15 am 10:15 Cloudy 55 12.8 48 8.7 76 76 S 14 22 29.68 1005 10 16.0934 0 0
10:35 am 10:35 Cloudy 58 14.5 48 9.1 70 70 S 20 31 29.65 1004 10 16.0934 0 0
10:55 am 10:55 Cloudy 59 15 48 9.1 68 68 S 17 28 29.65 1004 10 16.0934 0 0
11:15 am 11:15 Mostly Cloudy 59 15.2 48 8.8 66 66 SSE 15 24 29.65 1004 10 16.0934 0 0
11:35 am 11:35 Partly Cloudy 62 16.5 48 8.8 61 61 S 17 28 29.65 1004 10 16.0934 0 0
11:55 am 11:55 Sunny 63 17.4 47 8.6 56 56 S 17 28 29.59 1002 10 16.0934 0 0
12:15 pm 12:15 Sunny 65 18.2 47 8.3 53 53 S 20 31 29.59 1002 10 16.0934 0 0
12:35 pm 12:35 Sunny 65 18.3 47 8.3 52 52 SSE 21 33 29.59 1002 10 16.0934 0 0
12:55 pm 12:55 Sunny 65 18.6 46 7.5 49 49 S 24 39 29.56 1001 10 16.0934 0 0
1:15 pm 13:15 Sunny 67 19.6 46 7.7 46 46 S 22 35 29.56 1001 10 16.0934 0 0
1:35 pm 13:35 Sunny 69 20.5 43 5.9 39 39 S 21 33 29.5 999 10 16.0934 0 0
1:55 pm 13:55 Sunny 70 21.1 41 4.8 35 35 S 20 31 29.5 999 10 16.0934 0 0
2:15 pm 14:15 Sunny 70 21.3 40 4.3 33 33 S 15 24 29.5 999 10 16.0934 0 0
2:35 pm 14:35 Sunny 71 21.8 39 4 31 31 S 16 26 29.47 998 10 16.0934 0 0
2:55 pm 14:55 Sunny 72 22.1 36 2.2 27 27 S 16 26 29.47 998 10 16.0934 0 0
3:15 pm 15:15 Sunny 72 22.3 37 2.5 27 27 SSE 17 28 29.47 998 10 16.0934 0 0
3:35 pm 15:35 Sunny 73 22.6 35 1.4 25 25 SSE 17 28 29.41 996 10 16.0934 0 0
3:55 pm 15:55 Sunny 73 22.7 34 0.9 24 24 S 13 20 29.41 996 10 16.0934 0 0
4:15 pm 16:15 Sunny 73 22.7 31 -0.4 22 22 S 15 24 29.41 996 10 16.0934 0 0
4:35 pm 16:35 Sunny 73 22.8 25 -3.8 17 17 SSW 13 20 29.41 996 10 16.0934 0 0
4:55 pm 16:55 Sunny 73 23 23 -5.2 15 15 SSW 8 13 29.41 996 10 16.0934 0 0
5:15 pm 17:15 Sunny 72 22.4 24 -4.3 16 16 S 7 11 29.38 995 10 16.0934 0 0
5:35 pm 17:35 Sunny 70 21 24 -4.3 18 18 SE 6 9 29.41 996 10 16.0934 0 0
5:55 pm 17:55 Sunny 67 19.5 25 -4.1 20 20 SSE 7 11 29.41 996 10 16.0934 0 0
6:15 pm 18:15 Sunny 65 18.2 26 -3.2 23 23 SSE 8 13 29.44 997 10 16.0934 0 0
6:35 pm 18:35 Clear 63 17.1 25 -4 23 23 SSE 10 17 29.44 997 10 16.0934 0 0
6:55 pm 18:55 Clear 61 16 24 -4.7 24 24 SSE 8 13 29.44 997 10 16.0934 0 0
7:15 pm 19:15 Clear 60 15.5 21 -6 22 22 SE 7 11 29.44 997 10 16.0934 0 0
7:35 pm 19:35 Clear 60 15.5 20 -6.6 21 21 SSE 9 15 29.44 997 10 16.0934 0 0
7:55 pm 19:55 Clear 54 12 23 -4.9 31 31 SE 10 17 29.47 998 10 16.0934 0 0
8:15 pm 20:15 Clear 53 11.6 32 0 45 45 NNE 22 35 29.53 1000 10 16.0934 0 0
8:35 pm 20:35 Clear 46 7.8 39 3.8 76 76 NNE 22 35 29.56 1001 10 16.0934 0 0
8:55 pm 20:55 Clear 44 6.9 38 3.5 79 79 N 20 31 29.59 1002 10 16.0934 0 0
9:15 pm 21:15 Clear 43 6 37 3 81 81 N 20 31 29.59 1002 10 16.0934 0 0
9:35 pm 21:35 Partly Cloudy 41 5 37 2.6 85 85 NNW 17 28 29.65 1004 10 16.0934 0 0
9:55 pm 21:55 Cloudy 40 4.7 36 2.2 84 84 NNW 15 24 29.65 1004 10 16.0934 0 0
10:15 pm 22:15 Cloudy 40 4.3 35 1.8 84 84 NW 18 30 29.68 1005 10 16.0934 0 0
10:35 pm 22:35 Cloudy 39 4 34 1.3 83 83 NNW 20 31 29.68 1005 10 16.0934 0 0
10:55 pm 22:55 Cloudy 39 3.7 33 0.6 80 80 NNW 22 35 29.68 1005 10 16.0934 0 0
11:15 pm 23:15 Cloudy 38 3.5 33 0.3 80 80 NNW 28 44 29.74 1007 10 16.0934 0 0
11:35 pm 23:35 Cloudy 38 3.3 33 0.3 81 81 NNW 24 39 29.74 1007 10 16.0934 0 0
11:55 pm 23:55 Cloudy 37 3 33 0.3 83 83 NNW 29 46 29.74 1007 10 16.0934 0 0

Powered by AerisWeather